Погода в Домодедово

Россия / Московская область     55°26′13″N   37°46′04″E
темп.,
°C
ветер,
м/с
пор.,
м/с
влажн.,
%
обл.,
%
осадки,
мм/ч
давл.,
гПа
погр.,
м
13 июня, вс
вс1300:00+13юз228924 0.0 100720
03:00+13юз22926 0.0 100727
06:00+14юз23895 0.0 1007110
09:00+19ююз23765 0.1 1007616
12:00+22ююз246117 0.8 10061457
15:00+23ююв345587 0.8 10061855
18:00+20юз237594 0.3 100755
21:00+17ююз34820 0.3 100841
14 июня, пн
пн1400:00+15ююз3388100 0.0 100929
03:00+15ю229198 0.0 101032
06:00+16ююз249110 0.0 1012129
09:00+21юз347549 0.0 1013606
12:00+24юз346254 0.0 10141345
15:00+25юз135148 0.4 10141897
18:00+23ююз1166100 0.0 101316
21:00+20юз227738 0.1 101423
15 июня, вт
вт1500:00+17зюз338715 0.0 101531
03:00+16зюз22905 0.0 101416
06:00+18зюз23881 0.0 101499
09:00+22зсз23715 0.0 1014572
12:00+25з225897 0.4 10131351
15:00+26ююз2352100 0.4 10111746
18:00+24юз347398 0.3 1010202
21:00+19з338296 0.6 101049
16 июня, ср
ср1600:00+19сз348191 0.4 101048
03:00+17сз22877 0.4 101022
06:00+17сз36850 0.0 1011198
09:00+21ссз566695 0.0 1011800
12:00+23ссз56561 0.0 10121372
15:00+23ссз57545 0.6 10131769
18:00+21с58547 0.0 1014384
21:00+16ссв46653 0.0 101782
17 июня, чт
чт1700:00+14с33615 0.0 101922
03:00+12с33681 0.0 102145
06:00+13с38710 0.0 1022244
09:00+18с47480 0.0 1024764
12:00+20с57430 0.0 10241569
15:00+21с56420 0.0 10241732
18:00+20ссв47540 0.0 1024393
21:00+15ссв34630 0.0 102550